Weather History for Tucson Davis Monthan, AZ

Change the Weather History Date:

Sunday, May 10, 2009

  Actual Average Record
Temperature  
Mean Temperature 83 °F -  
Max Temperature 99 °F 88 °F 99 °F (1984)
Min Temperature 67 °F 57 °F 42 °F (1953)
Cooling Degree Days 18    
Growing Degree Days 33 (Base 50)    
Moisture  
Dew Point 22 °F    
Average Humidity 12    
Maximum Humidity 23    
Minimum Humidity 4    
Precipitation  
Precipitation 0.00 in - - ()
Sea Level Pressure  
Sea Level Pressure 29.71 in    
Wind  
Wind Speed 6 mph (SSW)    
Max Wind Speed 14 mph    
Max Gust Speed 22 mph    
Visibility 10 miles    
Events      
Averages and records for this station are not official NWS values.
T = Trace of Precipitation, MM = Missing Value Source: NWS Daily Summary

Daily Weather History Graph

Daily Weather History Graph

Search for Another Location

Airport:

Trip Planner

Search our weather history database for the weather conditions in past years. The results will help you decide how hot, cold, wet, or windy it might be!

Date:

Astronomy

May. 10, 2009 Rise Set
Actual Time 5:29 AM MST 7:10 PM MST
Civil Twilight 5:02 AM MST 7:37 PM MST
Nautical Twilight 4:30 AM MST 8:09 PM MST
Astronomical Twilight 3:56 AM MST 8:43 PM MST
Moon 9:05 PM MST (5/10) 6:12 AM MST (5/10)
Length of Visible Light 14h 34m
Length of Day
13h 41m
Full, 97% of the Moon is Illuminated
May 10
Full
May 17
Last Quarter
May 24
New
May 30
First Quarter
Jun 7
Full

Hourly Weather History & Observations

Time (MST) Temp. Dew Point Humidity Pressure Visibility Wind Dir Wind Speed Gust Speed Precip Events Conditions
12:55 AM 74.3 °F 29.3 °F 19% 29.72 in 10.0 mi Calm Calm - N/A   Clear
1:55 AM 69.8 °F 28.6 °F 22% 29.72 in 10.0 mi SSE 5.8 mph - N/A   Clear
2:55 AM 69.6 °F 29.5 °F 22% 29.72 in 10.0 mi SSE 6.9 mph - N/A   Clear
3:55 AM 67.1 °F 28.2 °F 23% 29.72 in 10.0 mi SE 10.4 mph - N/A   Clear
4:55 AM 68.0 °F 28.0 °F 22% 29.73 in 10.0 mi SE 10.4 mph - N/A   Clear
5:55 AM 67.5 °F 26.6 °F 22% 29.74 in 10.0 mi ESE 8.1 mph - N/A   Clear
6:55 AM 72.1 °F 28.2 °F 20% 29.75 in 10.0 mi SE 9.2 mph - N/A   Clear
7:55 AM 80.4 °F 30.7 °F 16% 29.76 in 10.0 mi SSE 5.8 mph - N/A   Clear
8:55 AM 84.6 °F 31.5 °F 15% 29.77 in 10.0 mi SSW 5.8 mph - N/A   Clear
9:55 AM 88.5 °F 25.9 °F 10% 29.76 in 10.0 mi Variable 6.9 mph - N/A   Clear
10:55 AM 90.9 °F 23.5 °F 9% 29.75 in 10.0 mi NW 6.9 mph - N/A   Clear
11:55 AM 92.3 °F 23.5 °F 8% 29.75 in 10.0 mi WNW 5.8 mph - N/A   Clear
12:55 PM 95.0 °F 18.9 °F 6% 29.71 in 10.0 mi Variable 3.5 mph - N/A   Clear
1:55 PM 98.1 °F 11.5 °F 4% 29.68 in 10.0 mi SW 13.8 mph 21.9 mph N/A   Clear
2:55 PM 98.4 °F 17.1 °F 5% 29.67 in 10.0 mi WNW 13.8 mph 19.6 mph N/A   Clear
3:55 PM 99.5 °F 16.7 °F 5% 29.64 in 10.0 mi SW 8.1 mph - N/A   Clear
4:55 PM 98.6 °F 17.1 °F 5% 29.64 in 10.0 mi WNW 4.6 mph - N/A   Clear
5:55 PM 97.2 °F 16.2 °F 5% 29.65 in 10.0 mi West 6.9 mph - N/A   Clear
6:55 PM 94.5 °F 18.3 °F 6% 29.64 in 10.0 mi WSW 10.4 mph - N/A   Clear
7:55 PM 88.9 °F 17.8 °F 7% 29.66 in 10.0 mi West 5.8 mph - N/A   Clear
8:55 PM 84.9 °F 14.7 °F 7% 29.68 in 10.0 mi WSW 5.8 mph - N/A   Clear
9:55 PM 78.6 °F 15.8 °F 9% 29.70 in 10.0 mi SW 6.9 mph - N/A   Clear
10:55 PM 75.6 °F 19.9 °F 12% 29.73 in 10.0 mi ENE 5.8 mph - N/A   Clear
11:55 PM 72.7 °F 21.0 °F 14% 29.73 in 10.0 mi SSE 6.9 mph - N/A   Clear